Location: Most
(50.5133°N, 13.6207°E)
Time: 10:08:37
(UTC+01:00)

SEEDS - Pass Details

Date: 07 December 2021
Orbit: 584 x 600 km, 97.6° (Epoch: 22 January)

Event Time Altitude Azimuth Distance (km) Brightness Sun altitude
Rises 16:40:17 0° 202° (SSW) 2,818 ? -6.0°
Reaches altitude 10° 16:42:53 10° 218° (SW) 1,919 ? -6.4°
Maximum altitude 16:46:04 21° 268° (W) 1,343 ? -6.8°
Drops below altitude 10° 16:49:16 10° 318° (NW) 1,924 ? -7.3°
Sets 16:51:53 0° 335° (NNW) 2,828 ? -7.6°
